User: anonymous   Login
Location: Unspecified
(0.0000°N, 0.0000°E)
Time: 23:37:48
(UTC+00:00)
Language:

OFEQ 10 - Orbit

View from above orbital plane
View from above orbital plane
View from above satellite
View from above satellite

Ground track
Ground track

The orbit data is extracted from the following two-line orbital elements,

1 39650U 14019A   17339.17938074 0.00000300  00000-0  14878-4 0    08
2 39650 140.9267 252.2489 0003746 225.2023 134.7970 15.16872271    03
Epoch (UTC): 05 December 2017 04:18:18
Eccentricity: 0.0003746
inclination: 140.9267°
perigee height: 513 km
apogee height: 518 km
right ascension of ascending node: 252.2489°
argument of perigee: 225.2023°
revolutions per day: 15.16872271
mean anomaly at epoch: 134.7970°
orbit number at epoch: 0

The dashed part of the orbit path shows where the satellite is in the earth's shadow,  

DLR